TimeAST,TemperatureF,Dew PointF,Humidity,Sea Level PressureIn,VisibilityMPH,Wind Direction,Wind SpeedMPH,Gust SpeedMPH,PrecipitationIn,Events,Conditions,WindDirDegrees,DateUTC
12:00 AM,78.8,73.4,83,29.89,-9999.0,East,6.9,-,N/A,,Unknown,80,2012-12-21 04:00:00
1:00 AM,78.8,73.4,83,29.89,-9999.0,East,6.9,-,N/A,,Unknown,80,2012-12-21 05:00:00
2:00 AM,79,72,73,,,East,8.1,,,,Clear,90,2012-12-21 06:00:00
2:00 AM,78.8,71.6,78,29.89,-9999.0,East,8.1,-,N/A,,Unknown,90,2012-12-21 06:00:00
3:00 AM,78.8,71.6,78,29.86,-9999.0,East,10.4,-,N/A,,Unknown,90,2012-12-21 07:00:00
4:00 AM,78.8,71.6,78,29.86,-9999.0,East,9.2,-,N/A,,Unknown,90,2012-12-21 08:00:00
5:00 AM,78.8,71.6,78,29.86,-9999.0,East,9.2,-,N/A,,Unknown,90,2012-12-21 09:00:00
6:00 AM,78.8,71.6,78,29.86,-9999.0,North,-9999.0,-,N/A,,Unknown,0,2012-12-21 10:00:00
7:00 AM,78.8,71.6,78,29.89,-9999.0,North,-9999.0,-,N/A,,Unknown,0,2012-12-21 11:00:00
8:00 AM,82.4,71.6,70,29.92,6.2,East,11.5,-,N/A,,Scattered Clouds,90,2012-12-21 12:00:00
9:00 AM,84.2,71.6,66,29.92,-9999.0,East,12.7,-,N/A,,Unknown,80,2012-12-21 13:00:00
11:00 AM,86.0,71.6,62,29.92,-9999.0,East,13.8,-,N/A,,Unknown,90,2012-12-21 15:00:00
2:00 PM,87,73,55,,6,ENE,12.7,,,,Clear,70,2012-12-21 18:00:00
2:00 PM,86.0,73.4,66,29.86,-9999.0,ENE,12.7,-,N/A,,Unknown,70,2012-12-21 18:00:00
3:00 PM,86.0,73.4,66,29.83,-9999.0,East,12.7,-,N/A,,Unknown,80,2012-12-21 19:00:00
4:00 PM,84.2,73.4,70,29.83,-9999.0,ENE,11.5,-,N/A,,Unknown,70,2012-12-21 20:00:00
5:00 PM,84.2,75.2,74,29.83,6.2,ENE,11.5,-,N/A,,Scattered Clouds,70,2012-12-21 21:00:00
6:00 PM,77.0,75.2,94,29.83,-9999.0,ENE,9.2,-,N/A,,Unknown,60,2012-12-21 22:00:00
7:00 PM,77.0,75.2,94,29.86,6.2,ENE,6.9,-,N/A,Rain,Light Rain,60,2012-12-21 23:00:00
8:00 PM,77.0,75.2,94,29.86,6.2,NE,4.6,-,N/A,,Scattered Clouds,50,2012-12-22 00:00:00
10:00 PM,77.0,75.2,94,29.89,-9999.0,ENE,5.8,-,N/A,,Unknown,70,2012-12-22 02:00:00
11:00 PM,78.8,75.2,89,29.89,-9999.0,ENE,5.8,-,N/A,,Unknown,70,2012-12-22 03:00:00